Regional Weather Roundup
Issued by NWS

Home | Current Version | Previous Version | Graphics & Text | Print | Product List | Glossary On
Versions: 1 2 3 4 5 6 7 8 9 10 11 12 13 14 15 16 17 18 19 20 21 22 23 24 25 26 27 28 29 30 31 32 33 34 35 36 37 38 39 40 41 42 43 44 45 46 47 48 49 50
422
ASUS43 KLOT 031003
RWRIL

ILLINOIS REGIONAL WEATHER ROUNDUP
NATIONAL WEATHER SERVICE CHICAGO/ROMEOVILLE IL
500 AM CDT TUE MAY 03 2016

NOTE: "FAIR" INDICATES FEW OR NO CLOUDS BELOW 12,000 FEET WITH NO
SIGNIFICANT WEATHER AND/OR OBSTRUCTIONS TO VISIBILITY.

* THESE STATIONS ARE NOT UNDER NWS QUALITY CONTROL. THEY ALSO MAY NOT
  REPORT WEATHER SUCH AS PRECIPITATION OR FOG.

ILZ001-002-007-009-015-016-024-031100-
NORTHWEST ILLINOIS

CITY           SKY/WX    TMP DP  RH WIND       PRES   REMARKS
MOLINE         CLEAR     40  37  89 CALM      30.00F
STERLING*      PTCLDY    43  41  93 W3        30.00S
$$

ILZ003-004-008-010-011-017-018-031100-
NORTH CENTRAL ILLINOIS

CITY           SKY/WX    TMP DP  RH WIND       PRES   REMARKS
ROCKFORD       MOCLDY    41  37  86 S3        29.99F
FREEPORT*      CLEAR     40  35  84 SW5       29.99F
DE KALB*       CLEAR     42  33  69 W6        29.99S
$$

ILZ005-006-012>014-019>023-031100-
NORTHEAST ILLINOIS

CITY           SKY/WX    TMP DP  RH WIND       PRES   REMARKS
CHICAGO-OHARE  PTCLDY    42  35  76 W6        29.96F
CHICAGO-MIDWAY PTCLDY    44  34  67 CALM      29.97S
AURORA         CLEAR     38  34  85 W3        29.98F
LANSING*       CLOUDY    38  37  97 CALM      29.98S
WAUKEGAN       CLEAR     39  34  82 W3        29.96F
DUPAGE AIRPORT CLEAR     37  33  85 CALM      29.97F
WHEELING       CLEAR     39  36  89 CALM      29.98S
NORTHERLY ISL    N/A     46  35  65 W2          N/A
NORTHERLY ISL    N/A     46  35  65 W2          N/A
$$

LMZ740>746-031100-
SOUTHERN LAKE MICHIGAN

STATION/POSITION SKY/WX   TEMP    WIND        PRES    VSBY  WAVE
                          AIR SEA DIR/SP/G                  HT/PER
                          (F)     (DEG/KT/KT) (MB)    (MI)  (FT/S)
SOUTHERN BUOY              42 41  230/  4/  4 1014.9          1
HARRISON CRIB              48     300/  4/  4   N/A
BURNHAM HARBOR             46      CALM  /  4   N/A
CALUMET HARBOR             43     270/  1/  2 1014.4F
BURNS HARBOR               47     350/  4/  7 1015.6S
MICHIGAN CITY              44     300/  4/  4   N/A
ST. JOSEPH                 44 48                N/A           1/ 4
$$

ILZ025>027-034>036-040-047-049-050-058-095>099-031100-
WEST-CENTRAL ILLINOIS

CITY           SKY/WX    TMP DP  RH WIND       PRES   REMARKS
QUINCY         CLOUDY    48  46  93 NW3       30.02S
MACOMB*        CLEAR     45  44  95 N3        30.03S
$$

ILZ028>032-037-038-041>044-048-051>054-059>061-031100-
CENTRAL ILLINOIS

CITY           SKY/WX    TMP DP  RH WIND       PRES   REMARKS
BLOOMINGTON    CLEAR     41  40  96 NW7       30.00S
DECATUR        PTCLDY    45  42  89 N3        29.99S
PEORIA         CLEAR     42  40  92 CALM      30.00F
SPRINGFIELD    CLEAR     48  45  89 CALM      30.00S
TAYLORVILLE    NOT AVBL
$$

ILZ033-039-045-046-055>057-062-063-031100-
EAST-CENTRAL ILLINOIS

CITY           SKY/WX    TMP DP  RH WIND       PRES   REMARKS
CHAMPAIGN      MOCLDY    42  40  92 NW6       29.97S
MATTOON        CLOUDY    46  43  89 NW7       29.97R FOG
$$

ILZ079-100>102-031100-
SOUTHWEST ILLINOIS

CITY           SKY/WX    TMP DP  RH WIND       PRES   REMARKS
ALTON          CLOUDY    49  48  99 W5        30.01S
CAHOKIA*       CLOUDY    53  49  86 NW6       30.01S
SPARTA*        CLOUDY    51  50  96 NW3       30.01S
$$

ILZ064>066-069>071-074>076-080>082-084>086-088>090-092>094-031100-
SOUTH-CENTRAL ILLINOIS

CITY           SKY/WX    TMP DP  RH WIND       PRES   REMARKS
CARBONDALE     CLEAR     49  46  90 W3        29.99S
MT. VERNON     CLOUDY    52  45  76 CALM      29.98S
SALEM*         MOCLDY    52  49  89 NW5       29.98F
$$

ILZ067-068-072-073-078-083-087-091-031100-
SOUTHEAST ILLINOIS

CITY           SKY/WX    TMP DP  RH WIND       PRES   REMARKS
LAWRENCEVILLE  PTCLDY    50  48  93 NW7       29.96S
FLORA*         PTCLDY    52  49  90 NW5       29.97F
HARRISBURG*    CLEAR     50  49  95 NW5       29.98S
ROBINSON*      MOCLDY    48  48  99 NW3       29.97S
$$

ABBREVIATIONS USED IN REMARKS
   TC - TEMPERATURE IN CELSIUS
  WCI - WIND CHILL INDEX
   HX - HEAT INDEX
  VSB - VISIBILITY
$$





USA.gov is the U.S. government's official web portal to all federal, state and local government web resources and services.